TimeEAT,TemperatureF,Dew PointF,Humidity,Sea Level PressureIn,VisibilityMPH,Wind Direction,Wind SpeedMPH,Gust SpeedMPH,PrecipitationIn,Events,Conditions,WindDirDegrees,DateUTC
12:00 AM,62,58,81,,19,East,17.9,,,,Clear,90,2013-07-16 21:00:00
12:00 AM,62.6,57.2,82,30.06,6.2,East,9.2,-,N/A,,Clear,90,2013-07-16 21:00:00
1:00 AM,60.8,59.0,94,30.04,6.2,East,5.8,-,N/A,,Clear,90,2013-07-16 22:00:00
2:00 AM,60.8,59.0,94,30.04,6.2,East,5.8,-,N/A,,Clear,90,2013-07-16 23:00:00
3:00 AM,59,57,92,,19,East,8.1,,,,Clear,90,2013-07-17 00:00:00
3:00 AM,59.0,57.2,94,30.01,6.2,East,8.1,-,N/A,,Clear,90,2013-07-17 00:00:00
6:00 AM,56,52,83,,19,East,17.9,,,,Clear,80,2013-07-17 03:00:00
8:00 AM,57.2,53.6,88,30.09,-9999.0,East,11.5,-,N/A,,Clear,90,2013-07-17 05:00:00
9:00 AM,66,49,45,,19,Calm,Calm,,,,Clear,,2013-07-17 06:00:00
9:00 AM,66.2,50.0,56,30.09,-9999.0,Calm,Calm,-,N/A,,Clear,0,2013-07-17 06:00:00
10:00 AM,73.4,50.0,44,30.09,-9999.0,Calm,Calm,-,N/A,,Clear,0,2013-07-17 07:00:00
11:00 AM,80.6,48.2,32,30.09,-9999.0,Calm,Calm,-,N/A,,Clear,0,2013-07-17 08:00:00
12:00 PM,82.4,48.2,30,30.09,-9999.0,NNW,13.8,-,N/A,,Clear,330,2013-07-17 09:00:00
1:00 PM,82.4,51.8,35,30.06,-9999.0,NNW,17.3,-,N/A,,Clear,330,2013-07-17 10:00:00
2:00 PM,80.6,57.2,45,30.04,-9999.0,NW,13.8,-,N/A,,Clear,320,2013-07-17 11:00:00
3:00 PM,82,50,22,,19,NNW,11.5,,,,Clear,330,2013-07-17 12:00:00
3:00 PM,80.6,50.0,34,30.01,-9999.0,NNW,11.5,-,N/A,,Clear,330,2013-07-17 12:00:00
4:00 PM,82.4,51.8,35,30.01,-9999.0,NNW,11.5,-,N/A,,Clear,330,2013-07-17 13:00:00
5:00 PM,80.6,57.2,45,-9999,6.2,NNW,15.0,-,N/A,,Clear,330,2013-07-17 14:00:00
6:00 PM,79,63,48,,19,NNW,11.5,,,,Clear,330,2013-07-17 15:00:00
6:00 PM,78.8,62.6,57,30.01,6.2,NNW,11.5,-,N/A,,Clear,330,2013-07-17 15:00:00
7:00 PM,75.2,68.0,78,30.01,-9999.0,Calm,Calm,-,N/A,,Clear,0,2013-07-17 16:00:00
9:00 PM,73,65,71,,19,WNW,6.9,,,,Clear,300,2013-07-17 18:00:00
9:00 PM,73.4,66.2,78,30.04,-9999.0,WNW,6.9,-,N/A,,Clear,300,2013-07-17 18:00:00